Date,TemperatureHighF,TemperatureAvgF,TemperatureLowF,DewpointHighF,DewpointAvgF,DewpointLowF,HumidityHigh,HumidityAvg,HumidityLow,PressureMaxIn,PressureMinIn,WindSpeedMaxMPH,WindSpeedAvgMPH,GustSpeedMaxMPH,PrecipitationSumIn
2013-1-11,47.9,47.6,47.4,45.8,45.6,45.3,93,93,92,29.82,29.79,12,7,12,0.00
2013-1-12,57.3,48.0,45.4,49.6,45.6,43.8,96,92,74,29.87,29.77,14,6,14,0.00
2013-1-13,46.0,35.7,28.1,41.1,34.2,25.8,96,94,83,30.01,29.72,18,3,18,0.54
2013-1-14,28.0,21.9,17.6,25.7,17.8,14.9,91,84,77,30.41,30.01,12,3,27,0.00
2013-1-15,29.1,26.9,23.3,20.9,18.8,16.4,85,71,62,30.42,30.15,10,2,10,0.04
2013-1-16,35.4,32.6,26.2,22.1,18.5,14.9,83,57,45,29.94,29.78,29,11,29,0.01
2013-1-17,43.4,28.7,18.1,35.0,16.9,7.8,73,61,47,29.92,29.51,46,12,50,0.00
2013-1-18,14.6,14.4,14.2,6.3,5.9,5.7,69,68,68,30.14,30.11,3,1,4,0.00
2013-1-19,43.9,43.9,43.9,34.4,34.4,34.4,69,69,69,29.64,29.64,14,14,25,0.00
2013-1-21,15.1,11.4,3.3,12.4,5.1,-4.1,89,76,59,30.12,29.96,20,4,20,0.00
2013-1-22,3.4,3.3,3.2,-3.9,-4.0,-4.2,71,71,71,30.12,30.12,8,4,11,0.00
2013-1-23,16.5,13.5,8.9,10.0,8.0,2.3,88,78,70,30.26,30.09,14,6,14,0.00
2013-1-24,17.6,10.9,5.4,10.0,1.3,-99.9,88,71,46,30.61,30.13,6,-19,0,0.00
2013-1-25,19.0,16.1,11.4,16.0,12.0,2.0,92,83,67,30.50,30.01,12,6,0,0.00
2013-1-26,26.4,21.2,16.7,18.0,16.0,13.0,92,81,64,30.44,30.05,6,1,0,0.00
2013-1-27,29.3,21.7,13.2,28.0,16.9,11.0,94,82,64,30.46,30.12,17,6,0,0.00
2013-1-28,45.2,36.8,29.5,45.0,35.9,28.0,98,96,93,30.12,29.83,13,5,0,0.02
2013-1-29,56.2,45.8,34.1,54.0,45.1,33.0,99,97,93,29.98,29.41,20,9,0,0.85
2013-1-30,58.2,48.3,30.4,57.0,46.8,27.0,99,94,86,29.41,29.06,25,8,0,0.60
2013-1-31,29.7,20.8,15.2,26.0,16.3,12.0,92,82,70,29.87,29.22,22,8,0,0.00
2013-2-1,17.5,13.6,8.9,12.0,8.6,3.0,89,80,68,30.26,29.88,19,7,0,0.00
2013-2-2,21.4,15.2,8.8,18.0,11.5,6.0,89,85,77,30.21,29.95,12,4,0,0.00
2013-2-3,19.9,12.6,3.7,16.0,8.7,1.0,90,84,71,30.02,29.86,12,3,0,0.00
2013-2-4,21.9,18.1,15.5,18.0,14.9,10.0,90,87,77,30.03,29.88,7,2,0,0.01
2013-2-5,27.1,19.6,6.8,26.0,16.5,4.0,94,88,73,29.96,29.80,14,4,0,0.00
2013-2-6,31.2,22.9,11.7,23.0,16.4,9.0,92,77,58,30.29,29.96,8,3,0,0.01
2013-2-7,37.4,29.5,24.2,29.0,23.1,17.0,92,77,71,30.27,29.86,13,6,0,0.01
2013-2-8,28.2,24.6,14.6,27.0,22.1,13.0,96,90,77,30.34,29.79,13,3,0,0.00
2013-2-9,30.4,19.1,5.4,20.0,14.2,3.0,93,82,59,30.45,30.27,11,4,0,0.00
2013-2-10,39.2,30.3,21.2,37.0,25.7,19.0,93,83,68,30.27,29.67,18,9,0,0.11
2013-2-11,44.3,36.8,31.0,43.0,31.7,26.0,96,82,70,29.82,29.52,36,16,0,0.14
2013-2-12,31.0,29.3,26.9,26.0,23.8,22.0,83,80,76,30.02,29.83,19,6,0,0.00
2013-2-13,39.0,30.2,25.2,28.0,24.2,22.0,87,79,62,29.91,29.71,10,3,0,0.00
2013-2-14,38.2,33.6,29.2,34.0,30.3,27.0,93,88,81,29.82,29.64,27,9,0,0.04
2013-2-15,32.3,26.0,20.7,28.0,17.3,13.0,84,70,57,30.11,29.82,11,3,0,0.00
2013-2-16,23.5,19.1,14.6,18.0,14.4,11.0,89,82,62,30.09,29.97,8,2,0,0.00
2013-2-17,24.0,15.7,7.7,13.0,7.3,4.0,92,71,50,30.21,30.06,5,1,0,0.00
2013-2-18,45.9,30.2,15.9,38.0,21.4,8.0,79,70,59,30.20,29.58,22,11,0,0.00
2013-2-19,44.1,27.4,16.8,41.0,23.7,12.0,100,86,74,29.90,29.38,30,14,0,0.16
2013-2-20,21.2,18.6,15.0,16.0,12.2,9.0,86,76,66,30.24,29.91,14,5,0,0.00
2013-2-21,24.7,20.8,19.2,17.0,15.0,13.0,86,78,67,30.37,30.24,11,3,0,0.00
2013-2-22,32.5,26.1,20.7,32.0,24.2,17.0,97,92,84,30.26,29.87,14,6,0,0.00
2013-2-23,32.1,28.6,23.0,31.0,23.6,19.0,94,81,70,29.90,29.85,21,8,0,0.00
2013-2-24,35.3,27.8,21.9,27.0,22.6,19.0,92,82,65,30.14,29.88,9,3,0,0.01
2013-2-25,39.6,30.5,18.4,28.0,23.0,17.0,95,75,56,30.22,30.08,8,2,0,0.00
2013-2-26,34.4,31.6,28.0,32.0,26.8,21.0,96,83,70,30.11,29.48,19,6,0,0.18
2013-2-27,34.7,33.4,32.7,34.0,32.4,32.0,97,96,93,29.55,29.42,11,3,0,0.32
2013-2-28,35.1,32.1,28.4,33.0,30.2,25.0,97,92,85,29.95,29.52,10,3,0,0.10
2013-3-1,28.3,25.1,23.7,25.0,21.2,19.0,88,85,82,30.10,29.95,10,3,0,0.00
2013-3-2,24.7,23.2,20.8,20.0,18.9,17.0,92,84,79,30.09,30.05,5,2,0,0.00
2013-3-3,27.1,21.6,14.3,19.0,15.6,12.0,92,78,63,30.05,30.00,8,2,0,0.01
2013-3-4,34.1,23.1,12.4,18.0,14.8,10.0,91,72,46,30.15,30.05,6,1,0,0.00
2013-3-5,36.2,27.3,19.2,25.0,20.6,15.0,91,76,60,30.13,29.82,12,5,0,0.00
2013-3-6,37.6,31.6,25.7,30.0,27.0,23.0,89,83,73,30.20,29.86,8,2,0,0.00
2013-3-7,33.6,31.1,24.6,30.0,25.4,19.0,92,80,64,30.38,30.18,6,1,0,0.00
2013-3-8,44.5,31.4,19.8,28.0,23.5,17.0,90,74,51,30.49,30.38,6,1,0,0.00
2013-3-9,40.6,35.1,27.6,32.0,28.6,24.0,89,78,65,30.40,30.02,16,7,0,0.00
2013-3-10,58.7,50.0,38.3,46.0,38.4,32.0,79,65,53,30.01,29.75,17,8,0,0.00
2013-3-11,57.5,48.3,36.2,48.0,43.5,33.0,96,84,52,29.77,29.41,23,11,0,0.40
2013-3-12,36.2,32.9,29.4,33.0,29.0,25.0,93,85,74,29.88,29.63,18,9,0,0.00
2013-3-13,32.3,27.8,23.1,28.0,21.0,15.0,94,76,56,30.18,29.84,12,4,0,0.01
2013-3-14,39.7,30.0,20.9,24.0,18.8,14.0,83,64,47,30.25,30.07,14,3,0,0.00
2013-3-15,36.8,33.7,30.8,33.0,29.2,17.0,96,84,55,30.06,29.82,17,4,0,0.05
2013-3-16,32.9,28.3,26.0,32.0,26.0,23.0,96,91,81,30.02,29.75,8,2,0,0.06
2013-3-17,31.2,25.4,19.8,24.0,16.5,13.0,87,70,51,30.26,30.02,11,4,0,0.02
2013-3-18,34.2,28.6,20.4,33.0,25.4,14.0,96,88,77,30.18,29.54,21,8,0,0.02
2013-3-19,33.8,25.5,22.0,31.0,20.4,15.0,92,81,73,29.92,29.59,28,14,0,0.00
2013-3-20,25.9,23.0,16.6,19.0,15.4,12.0,82,73,63,29.94,29.88,17,6,0,0.00
2013-3-21,29.7,23.2,15.3,24.0,18.9,12.0,91,83,74,29.93,29.85,13,4,0,0.01
2013-3-22,37.9,29.6,24.9,24.0,21.0,18.0,81,71,56,30.01,29.92,12,3,0,0.01
2013-3-23,34.1,28.6,22.4,25.0,22.9,20.0,93,80,68,30.10,30.00,6,1,0,0.00
2013-3-24,36.3,29.5,21.9,27.0,23.8,20.0,93,80,58,30.03,29.64,14,4,0,0.00
2013-3-25,38.3,33.4,30.0,30.0,26.5,24.0,83,76,65,29.90,29.57,9,4,0,0.00
2013-3-26,41.0,35.4,31.8,32.0,29.6,27.0,89,80,63,30.09,29.91,7,2,0,0.00
2013-3-27,45.6,36.9,28.9,31.0,27.3,25.0,92,70,49,30.18,30.10,12,3,0,0.00
2013-3-28,50.8,39.4,29.0,29.0,26.3,24.0,86,62,41,30.24,30.18,10,2,0,0.00
2013-3-29,50.6,39.5,28.4,27.0,23.5,22.0,78,55,33,30.26,30.17,8,1,0,0.00
2013-3-30,53.0,41.2,26.8,32.0,25.2,18.0,91,58,26,30.19,29.89,12,4,0,0.00
2013-3-31,55.1,45.8,41.1,42.0,35.6,31.0,89,69,48,29.89,29.58,20,6,0,0.02
2013-4-1,40.5,30.9,26.3,32.0,18.5,13.0,87,61,42,30.08,29.66,18,4,0,0.00
2013-4-2,38.9,30.4,22.6,21.0,16.4,13.0,88,59,36,30.24,30.08,15,4,0,0.00
2013-4-3,41.0,32.3,22.7,21.0,15.6,12.0,75,52,33,30.42,30.23,7,2,0,0.00
2013-4-4,53.7,40.2,29.0,24.0,17.3,-99.9,63,43,24,30.34,29.92,13,-7,0,0.00
2013-4-5,46.1,40.1,33.3,32.0,23.1,18.0,84,53,33,30.16,29.91,7,2,0,0.00
2013-4-6,48.7,38.8,31.0,30.0,24.2,17.0,77,57,40,30.21,29.75,23,11,0,0.00
2013-4-7,56.9,47.1,37.5,47.0,36.6,29.0,82,68,42,29.99,29.57,21,6,0,0.01
2013-4-8,63.3,44.5,35.6,55.0,40.0,32.0,94,85,61,29.99,29.66,33,8,0,0.16
2013-4-9,50.5,44.9,39.8,46.0,42.7,39.0,97,92,83,30.05,29.84,13,4,0,0.72
2013-4-10,44.0,40.5,37.5,43.0,39.6,37.0,100,96,95,29.96,29.82,12,3,0,0.37
2013-4-11,37.8,36.6,35.7,37.0,35.7,34.0,97,96,94,29.97,29.62,16,7,0,0.82
2013-4-12,40.9,37.5,33.8,39.0,35.2,33.0,97,91,78,29.73,29.51,18,6,0,0.28
2013-4-13,39.9,37.4,35.0,38.0,31.8,29.0,93,80,68,29.96,29.73,21,10,0,0.01
2013-4-14,46.3,38.8,32.8,38.0,33.0,28.0,93,80,71,30.09,29.90,12,5,0,0.02
2013-4-15,65.4,54.4,40.9,56.0,46.6,35.0,92,75,64,29.93,29.83,20,8,0,0.03
2013-4-16,60.7,51.7,45.2,55.0,42.7,36.0,95,74,46,30.18,29.82,14,3,0,0.07
2013-4-17,56.4,46.6,38.6,44.0,36.3,32.0,94,69,49,30.30,29.98,23,6,0,0.74
2013-4-18,74.1,57.7,43.4,65.0,54.8,42.0,96,90,73,29.98,29.49,30,10,0,0.41
2013-4-19,58.2,42.1,32.6,57.0,33.7,-99.9,97,81,70,29.71,29.26,27,-29,0,0.54
2013-4-20,33.8,31.4,28.4,31.0,24.1,18.0,93,75,62,30.06,29.71,21,7,0,0.00
2013-4-23,-200.0,0.0,200.0,-99.9,-99.9,-99.9,0,0,100,0.00,40.00,0,-999,0,0.00
2013-5-11,59.9,43.7,39.9,47.0,31.1,-99.9,85,72,55,29.88,0.00,20,-53,0,0.03
2013-5-12,46.2,39.0,34.3,36.0,27.0,-99.9,90,68,53,30.06,29.85,15,-26,0,0.00
2013-5-13,52.5,41.1,30.5,35.0,24.6,-99.9,87,58,33,30.15,30.06,8,-19,0,0.00
2013-5-14,75.0,57.7,44.3,55.0,41.7,32.0,72,56,44,30.07,29.67,20,6,0,0.00
2013-5-15,80.0,68.8,55.9,60.0,50.1,-99.9,84,56,33,29.73,29.53,19,-7,0,0.00
2013-5-16,80.7,67.0,51.9,53.0,47.6,42.0,90,53,31,29.96,29.73,7,2,0,0.00
2013-5-17,71.9,60.2,47.9,49.0,44.2,40.0,77,57,40,30.09,29.97,11,3,0,0.00
2013-5-18,77.3,66.4,55.3,53.0,46.9,43.0,69,51,34,30.09,29.97,9,4,0,0.00
2013-5-19,82.6,70.7,56.8,65.0,56.9,46.0,79,63,50,29.98,29.81,9,3,0,0.00
2013-5-20,86.5,74.3,64.0,70.0,65.4,62.0,93,75,50,29.85,29.69,19,5,0,0.00
2013-5-21,81.0,75.3,69.5,67.0,63.8,60.0,84,69,52,29.74,29.64,20,4,0,0.00
2013-5-22,77.5,69.3,62.9,65.0,63.2,61.0,92,81,57,29.67,29.54,15,6,0,0.07
2013-5-23,61.7,51.4,42.1,60.0,50.0,41.0,97,95,87,30.11,29.63,7,2,0,0.18
2013-5-24,54.3,45.6,38.3,43.0,38.4,35.0,97,78,55,30.33,30.11,5,1,0,0.00
2013-5-25,62.9,50.6,37.8,42.0,38.9,36.0,96,68,42,30.38,30.25,6,1,0,0.00
2013-5-26,67.4,54.9,37.2,45.0,38.6,34.0,94,59,32,30.31,30.18,7,1,0,0.00
2013-5-27,59.2,51.7,44.0,50.0,43.1,33.0,97,74,49,30.22,29.96,11,4,0,0.18
2013-5-28,72.6,61.0,50.9,70.0,59.9,50.0,99,96,87,29.95,29.75,12,4,0,1.08
2013-5-29,78.5,71.7,66.7,69.0,65.9,63.0,94,82,63,29.92,29.71,14,4,0,0.09
2013-5-30,82.3,74.1,67.3,73.0,67.4,63.0,90,80,64,29.98,29.88,18,4,0,0.17
2013-5-31,77.8,72.8,68.8,69.0,67.5,66.0,94,84,72,29.92,29.75,14,6,0,0.09
2013-6-1,75.8,69.6,64.1,69.0,64.8,63.0,97,85,70,29.78,29.61,18,6,0,0.31
2013-6-2,67.9,62.7,51.4,64.0,56.8,44.0,91,81,71,29.93,29.58,17,5,0,0.00
2013-6-3,65.7,54.6,40.1,50.0,42.5,38.0,95,66,42,30.04,29.93,8,1,0,0.00
2013-6-4,70.3,60.1,44.9,49.0,45.8,38.0,95,62,42,30.15,30.04,5,1,0,0.00
2013-6-5,70.3,61.1,49.2,51.0,43.1,35.0,71,53,40,30.13,29.94,7,2,0,0.00
2013-6-6,66.6,59.5,54.6,56.0,50.4,46.0,84,72,64,29.96,29.81,8,1,0,0.00
2013-6-7,61.2,54.4,50.1,54.0,51.2,49.0,95,89,77,29.88,29.83,4,0,0,0.00
2013-6-8,71.3,62.2,54.6,56.0,53.5,52.0,92,74,53,30.02,29.87,4,0,0,0.00
2013-6-9,73.0,66.6,58.1,60.0,56.5,53.0,87,71,58,30.05,29.89,14,5,0,0.00
2013-6-10,73.4,68.1,62.3,67.0,64.2,53.0,98,88,63,29.89,29.67,10,2,0,1.95
2013-6-11,78.1,70.1,63.2,69.0,64.7,63.0,99,84,65,29.84,29.71,7,2,0,0.01
2013-6-12,73.7,68.4,61.1,69.0,65.2,60.0,96,89,81,29.86,29.58,9,1,0,0.12
2013-6-13,76.1,67.8,60.2,66.0,61.0,58.0,98,81,56,29.86,29.51,9,1,0,1.26
2013-6-14,75.3,65.5,56.3,60.0,56.0,52.0,95,73,50,30.03,29.87,8,1,0,0.00
2013-6-15,76.2,67.0,58.0,64.0,59.7,54.0,93,78,57,30.02,29.86,12,3,0,0.00
2013-6-16,79.2,68.9,64.3,66.0,58.8,-99.9,97,75,47,29.85,29.70,13,-16,0,0.46
2013-6-17,83.7,72.6,60.9,64.0,59.1,56.0,88,65,42,29.86,29.76,10,2,0,0.00
2013-6-18,70.0,61.9,52.6,59.0,51.8,43.0,96,72,46,30.03,29.83,8,1,0,0.03
2013-6-19,73.3,61.2,45.2,57.0,48.7,42.0,90,66,44,30.13,30.02,6,2,0,0.00
2013-6-20,79.9,68.6,56.0,61.0,55.0,51.0,89,64,42,30.15,30.08,12,3,0,0.00
2013-6-21,83.5,72.7,61.4,67.0,60.7,55.0,82,67,51,30.14,29.98,10,3,0,0.00
2013-6-22,85.4,76.8,71.6,73.0,68.0,60.0,88,75,63,30.02,29.90,13,4,0,0.00
2013-6-23,87.2,78.5,70.2,70.0,68.9,67.0,94,74,54,29.99,29.89,14,4,0,0.00
2013-6-24,85.1,76.4,69.4,71.0,68.9,66.0,92,78,60,29.98,29.84,13,4,0,0.00
2013-6-25,82.0,72.9,67.3,74.0,68.6,64.0,96,87,73,29.90,29.76,13,4,0,0.37
2013-6-26,81.1,75.7,67.7,72.0,69.4,66.0,96,81,69,29.81,29.68,13,4,0,0.00
2013-6-27,80.5,71.6,65.8,73.0,68.6,65.0,98,90,72,29.69,29.56,14,2,0,1.83
2013-6-28,77.3,67.9,64.0,68.0,64.7,62.0,99,90,69,29.58,29.46,6,1,0,0.01
2013-6-29,73.1,66.8,62.8,65.0,62.5,60.0,97,86,72,29.68,29.48,6,0,0,0.00
2013-6-30,77.5,68.5,60.8,63.0,60.1,51.0,93,75,54,29.90,29.68,9,1,0,0.00
2013-7-1,67.5,61.5,56.5,60.0,54.3,47.0,94,78,63,30.02,29.89,5,0,0,0.03
2013-7-2,73.0,64.7,56.9,65.0,59.7,54.0,91,84,75,30.02,29.97,6,1,0,0.00
2013-7-3,79.6,68.2,60.4,68.0,57.4,-99.9,95,77,62,30.05,29.98,9,-41,0,0.00
2013-7-4,78.2,72.2,67.8,67.0,63.8,59.0,95,76,53,30.07,30.01,9,2,0,0.00
2013-7-5,83.0,74.6,66.3,70.0,64.5,61.0,94,73,50,30.06,29.98,9,1,0,0.00
2013-7-6,80.5,73.4,68.0,71.0,68.8,66.0,95,86,67,30.04,29.92,11,3,0,0.00
2013-7-7,81.2,73.9,69.5,71.0,69.3,66.0,97,86,64,29.96,29.89,7,3,0,0.12
2013-7-8,80.9,73.7,69.2,75.0,69.8,67.0,96,88,73,29.99,29.90,13,3,0,0.56
2013-7-9,86.5,75.5,70.3,75.0,70.9,69.0,97,86,63,29.92,29.80,12,2,0,0.10
2013-7-10,85.2,77.3,64.2,75.0,70.1,58.0,97,80,57,29.88,29.70,11,4,0,0.01
2013-7-11,78.3,67.6,57.6,61.0,57.8,55.0,96,73,52,30.01,29.88,6,1,0,0.00
2013-7-12,79.8,66.8,54.1,64.0,59.0,53.0,97,78,51,30.11,30.01,8,1,0,0.00
2013-7-13,82.2,73.0,60.6,67.0,61.2,58.0,90,69,46,30.15,30.09,7,2,0,0.00
2013-7-14,86.8,77.7,65.2,74.0,68.8,63.0,93,75,58,30.19,30.14,10,2,0,0.00
2013-7-15,90.1,79.3,69.9,78.0,73.4,68.0,95,83,63,30.22,30.14,9,1,0,0.00
2013-7-16,90.0,82.3,75.7,79.0,75.5,73.0,95,80,61,30.23,30.16,8,2,0,0.00
2013-7-17,90.5,82.4,75.5,79.0,75.8,73.0,92,81,62,30.20,30.07,11,2,0,0.00
2013-7-18,90.5,82.7,75.0,77.0,74.6,72.0,91,77,60,30.09,29.88,14,3,0,0.00
2013-7-19,90.6,82.5,74.4,76.0,74.4,71.0,89,77,57,29.88,29.63,25,7,0,0.54
2013-7-20,85.3,75.8,68.1,73.0,66.3,60.0,97,74,44,29.86,29.65,12,2,0,0.00
2013-7-21,81.0,71.1,60.4,67.0,62.2,57.0,94,75,57,29.95,29.85,5,1,0,0.00
2013-7-22,79.3,73.0,66.7,69.0,66.6,64.0,94,81,62,29.89,29.70,11,3,0,0.02
2013-7-23,79.6,70.2,59.6,72.0,65.5,52.0,96,85,70,29.82,29.61,10,2,0,0.34
2013-7-24,70.4,61.8,51.5,55.0,52.5,48.0,88,72,55,30.00,29.83,7,1,0,0.00
2013-7-25,74.7,64.3,50.5,58.0,53.9,49.0,97,72,47,30.07,30.00,7,1,0,0.00
2013-7-26,75.9,68.7,59.2,63.0,59.2,56.0,88,73,56,30.05,29.86,10,4,0,0.00
2013-7-27,71.8,66.3,56.0,66.0,63.6,52.0,94,91,75,29.86,29.67,12,3,0,1.19
2013-7-28,63.7,57.5,52.3,57.0,53.3,50.0,93,86,73,29.93,29.78,13,5,0,0.07
2013-7-29,67.5,60.5,56.3,58.0,55.5,53.0,92,84,70,30.14,29.92,9,3,0,0.02
2013-7-30,76.6,65.6,52.2,63.0,57.8,51.0,98,78,53,30.19,30.07,6,1,0,0.00
2013-7-31,70.7,67.2,64.8,67.0,64.7,62.0,98,92,86,30.07,29.84,9,1,0,0.48
2013-8-1,74.7,66.3,61.0,65.0,61.7,56.0,98,86,56,29.87,29.82,13,1,0,0.36
2013-8-2,70.7,64.6,57.4,65.0,60.2,55.0,95,85,69,29.88,29.79,13,3,0,0.00
2013-8-3,76.7,68.6,58.2,64.0,59.5,55.0,98,75,50,30.00,29.84,3,0,0,0.00
2013-8-4,72.1,63.2,53.7,58.0,55.3,52.0,94,77,55,30.11,30.00,4,0,0,0.00
2013-8-5,69.9,63.7,57.1,59.0,54.8,52.0,84,73,56,30.07,29.91,7,2,0,0.00
2013-8-6,75.1,68.4,63.2,70.0,64.4,59.0,94,87,76,29.91,29.82,12,4,0,0.22
2013-8-7,81.3,71.8,64.6,73.0,67.9,63.0,97,88,71,29.85,29.75,23,4,0,0.12
2013-8-8,76.0,69.3,63.6,70.0,63.1,59.0,96,81,63,29.95,29.84,5,0,0,0.00
2013-8-9,77.8,68.9,57.2,64.0,59.1,55.0,94,73,50,29.95,29.88,9,2,0,0.00
2013-8-10,76.6,67.8,59.2,63.0,60.0,57.0,95,77,54,30.07,29.95,6,0,0,0.00
2013-8-11,76.8,68.7,60.6,63.0,60.0,57.0,91,75,53,30.06,29.98,9,1,0,0.00
2013-8-12,69.5,66.3,63.7,68.0,63.8,59.0,97,91,75,30.00,29.78,12,2,0,0.68
2013-8-13,66.8,60.4,52.6,65.0,53.2,46.0,97,79,56,30.01,29.79,6,1,0,0.01
2013-8-14,70.0,58.4,46.8,54.0,50.1,45.0,94,76,51,30.13,30.02,4,0,0,0.00
2013-8-15,71.2,61.3,50.2,59.0,52.9,48.0,96,76,51,30.12,30.04,8,1,0,0.00
2013-8-16,78.2,66.6,54.1,59.0,56.1,52.0,94,72,47,30.15,30.06,4,0,0,0.00
2013-8-17,77.8,66.7,53.6,59.0,56.3,52.0,96,72,44,30.21,30.13,8,0,0,0.00
2013-8-18,81.1,68.9,55.7,66.0,59.5,54.0,97,75,45,30.17,30.05,5,0,0,0.00
2013-8-19,79.9,69.6,57.3,64.0,59.9,53.0,97,74,41,30.06,29.98,10,2,0,0.00
2013-8-20,83.2,72.4,61.3,69.0,64.6,60.0,96,78,55,30.08,30.01,9,2,0,0.00
2013-8-21,82.6,74.8,66.1,71.0,68.3,64.0,94,81,66,30.07,29.92,10,3,0,0.00
2013-8-22,81.6,74.2,68.2,70.0,68.2,66.0,95,82,65,29.97,29.87,9,2,0,0.00
2013-8-23,79.3,69.4,57.2,67.0,58.7,51.0,96,72,40,30.15,29.98,5,0,0,0.00
2013-8-24,80.0,69.0,56.4,64.0,59.1,55.0,97,73,48,30.25,30.14,8,2,0,0.00
2013-8-25,83.6,72.9,60.6,69.0,63.4,59.0,95,74,53,30.23,30.09,12,4,0,0.00
2013-8-26,84.3,76.9,69.7,74.0,68.4,63.0,90,75,66,30.09,29.91,13,5,0,0.00
2013-8-27,82.2,75.9,70.7,77.0,73.2,70.0,97,91,83,29.93,29.76,11,2,0,1.00
2013-8-28,81.4,75.2,67.8,75.0,72.8,67.0,98,92,78,29.94,29.72,9,1,0,1.98
2013-8-29,86.0,74.7,64.8,73.0,69.1,64.0,99,84,62,30.01,29.93,4,0,0,0.00
2013-8-30,84.5,76.5,68.1,74.0,70.2,66.0,95,81,65,29.93,29.67,14,4,0,0.00
2013-8-31,78.2,72.7,66.3,73.0,68.6,65.0,96,87,72,29.78,29.67,4,0,0,0.00
2013-9-1,79.7,71.3,66.5,72.0,67.9,64.0,95,89,77,29.79,29.65,6,1,0,0.00
2013-9-2,73.2,67.5,57.4,71.0,61.9,53.0,96,82,66,29.87,29.66,8,1,0,0.00
2013-9-3,73.7,63.7,56.7,58.0,54.8,51.0,87,74,51,29.97,29.86,7,1,0,0.00
2013-9-4,78.2,67.3,56.6,64.0,59.7,54.0,93,78,56,30.02,29.95,11,4,0,0.00
2013-9-5,69.4,60.6,50.5,63.0,51.8,48.0,94,74,51,30.21,30.02,4,0,0,0.00
2013-9-6,74.2,61.2,49.1,57.0,51.3,47.0,95,72,49,30.24,30.02,8,3,0,0.00
2013-9-7,77.7,69.0,61.3,70.0,62.0,50.0,91,78,66,30.02,29.84,10,3,0,0.09
2013-9-8,71.7,67.2,57.4,67.0,60.1,51.0,95,79,59,30.03,29.87,11,2,0,0.01
2013-9-9,75.5,64.7,55.2,72.0,61.8,51.0,97,90,81,30.02,29.84,9,3,0,0.15
2013-9-10,90.5,80.6,69.7,73.0,70.5,67.0,96,73,46,29.94,29.82,16,5,0,0.00
2013-9-11,86.4,77.0,68.8,75.0,70.1,67.0,97,80,63,29.95,29.83,19,4,0,0.59
2013-9-12,77.0,67.5,55.8,68.0,61.1,50.0,97,81,52,29.91,29.79,5,1,0,0.01
2013-9-13,57.0,52.6,43.7,49.0,45.6,41.0,91,77,62,30.10,29.91,4,1,0,0.00
2013-9-14,66.4,52.9,40.0,50.0,43.9,39.0,97,74,46,30.16,30.05,7,1,0,0.01
2013-9-15,61.3,55.7,50.4,55.0,50.1,44.0,96,82,69,30.09,30.02,7,1,0,0.11
2013-9-16,60.3,54.2,45.1,54.0,49.8,42.0,97,86,62,30.34,30.09,5,0,0,0.01
2013-9-17,65.8,51.9,37.7,53.0,45.6,37.0,99,81,54,30.37,30.19,8,2,0,0.00
2013-9-18,72.9,61.7,50.5,59.0,53.5,45.0,96,76,51,30.18,29.98,10,3,0,0.00
2013-9-19,77.5,68.3,60.0,69.0,64.1,58.0,95,87,74,29.99,29.85,9,4,0,0.00
2013-9-20,75.8,70.4,66.4,71.0,68.0,66.0,97,92,78,29.84,29.66,13,5,0,0.24
2013-9-21,66.9,61.1,53.5,66.0,55.5,46.0,97,83,57,29.82,29.61,9,2,0,0.00
2013-9-22,57.2,51.3,44.6,46.0,44.0,42.0,93,77,64,30.05,29.82,5,0,0,0.00
2013-9-23,59.1,48.3,39.3,47.0,43.3,38.0,97,84,61,30.16,30.05,5,1,0,0.00
2013-9-24,66.2,53.7,44.2,53.0,47.7,43.0,97,82,59,30.12,29.96,8,1,0,0.01
2013-9-25,68.8,56.6,47.3,55.0,50.0,45.0,98,81,46,29.97,29.91,7,1,0,0.00
2013-9-26,74.9,58.1,43.1,58.0,50.8,42.0,98,80,47,30.10,29.96,4,0,0,0.01
2013-9-27,73.3,61.3,48.2,59.0,53.8,47.0,98,78,55,30.18,30.09,6,1,0,0.00
2013-9-28,74.2,63.9,55.1,60.0,57.1,54.0,98,80,53,30.14,29.95,12,4,0,0.01
2013-9-29,63.0,60.4,57.7,60.0,57.7,55.0,98,91,76,29.96,29.89,7,2,0,0.12
2013-9-30,69.5,60.6,56.1,58.0,55.8,52.0,99,86,58,29.96,29.87,7,1,0,0.04
2013-10-1,70.9,62.3,54.0,64.0,59.1,53.0,98,89,75,29.95,29.87,17,4,0,0.01
2013-10-2,77.5,66.3,55.2,62.0,54.7,41.0,97,71,28,30.03,29.89,12,1,0,0.00
2013-10-3,76.5,65.7,53.9,68.0,60.7,50.0,95,84,75,30.00,29.86,8,2,0,0.00
2013-10-4,75.7,69.9,66.1,69.0,66.6,64.0,97,89,80,29.97,29.87,8,2,0,0.14
2013-10-5,72.0,67.6,63.8,69.0,66.1,63.0,99,95,89,29.97,29.79,10,3,0,0.42
2013-10-6,69.0,64.3,54.3,68.0,62.7,53.0,98,94,88,29.79,29.57,12,5,0,0.42
2013-10-7,58.7,51.7,44.9,53.0,47.8,43.0,97,87,66,30.07,29.62,19,6,0,0.02
2013-10-8,65.6,54.8,44.1,49.0,46.1,43.0,96,75,52,30.24,30.08,9,2,0,0.00
2013-10-9,68.3,56.7,45.8,54.0,48.6,45.0,97,76,52,30.27,30.17,9,2,0,0.00
2013-10-10,69.0,56.7,46.7,56.0,48.1,46.0,99,76,44,30.18,30.09,7,1,0,0.01
2013-10-11,71.1,56.3,42.1,52.0,46.6,41.0,96,73,41,30.11,30.02,6,1,0,0.00
2013-10-12,73.9,62.6,53.7,63.0,56.3,51.0,98,81,51,30.05,29.97,14,4,0,0.00
2013-10-13,65.9,58.3,46.0,59.0,48.5,42.0,95,73,43,30.30,30.02,8,1,0,0.00
2013-10-14,62.3,50.3,41.1,47.0,43.1,40.0,97,78,52,30.37,30.23,6,1,0,0.00
2013-10-15,62.0,54.2,43.5,60.0,52.0,42.0,97,92,84,30.23,29.78,15,4,0,0.08
2013-10-16,62.0,54.5,50.8,61.0,51.0,46.0,96,88,75,29.85,29.75,19,7,0,0.01
2013-10-17,51.3,49.7,46.5,49.0,47.9,45.0,96,93,90,29.85,29.70,9,4,0,0.17
2013-10-18,60.8,50.7,43.4,47.0,43.9,41.0,96,80,49,29.87,29.79,14,5,0,0.00
2013-10-19,48.0,44.4,41.3,43.0,41.3,38.0,96,89,78,29.86,29.70,15,5,0,0.25
2013-10-20,56.2,48.1,40.1,45.0,41.5,38.0,93,79,60,29.88,29.78,11,5,0,0.01
2013-10-21,55.3,50.0,41.5,49.0,43.7,36.0,89,79,68,29.81,29.75,17,6,0,0.00
2013-10-22,47.1,41.4,34.2,37.0,32.2,30.0,85,71,55,29.88,29.80,16,6,15,0.00
2013-10-23,45.0,38.3,31.2,37.0,32.3,27.0,96,80,50,29.91,29.79,8,3,0,0.00
2013-10-24,45.6,37.4,32.4,36.0,32.3,29.0,95,83,55,30.15,29.90,14,4,0,0.01
2013-10-25,45.0,38.2,32.1,37.0,32.1,29.0,96,80,60,30.30,30.07,13,5,0,0.00
2013-10-26,48.5,43.4,38.0,41.0,34.1,30.0,94,71,55,30.06,29.73,21,7,0,0.12
2013-10-27,51.6,42.0,34.5,36.0,34.1,32.0,93,75,54,30.04,29.95,13,3,0,0.00
2013-10-28,49.1,40.9,34.3,39.0,34.9,31.0,91,79,69,30.38,30.02,7,1,0,0.00
2013-10-29,48.3,41.8,38.2,38.0,34.4,32.0,82,75,64,30.41,30.22,7,2,0,0.00
2013-10-30,61.3,49.3,39.0,50.0,42.9,35.0,97,80,58,30.21,29.91,13,3,0,0.12
2013-10-31,61.1,58.7,51.9,60.0,57.6,51.0,98,96,94,29.91,29.09,15,8,0,1.04
2013-11-1,60.5,48.8,45.1,59.0,44.4,39.0,96,85,72,29.62,29.05,25,12,0,0.06
2013-11-2,45.2,42.2,33.7,44.0,40.5,32.0,97,94,87,30.08,29.61,5,1,0,0.29
2013-11-3,42.5,36.1,29.8,36.0,32.2,29.0,97,86,69,30.42,30.08,8,2,0,0.01
2013-11-4,47.3,41.1,34.5,37.0,32.3,26.0,89,72,44,30.45,30.27,18,7,0,0.00
2013-11-5,52.9,49.8,43.8,48.0,44.2,37.0,90,81,75,30.31,30.12,13,6,0,0.00
2013-11-6,55.0,51.3,41.6,53.0,47.1,39.0,94,85,69,30.12,29.73,20,9,0,0.31
2013-11-7,43.1,38.7,33.8,39.0,31.9,26.0,93,78,55,30.10,29.95,10,3,0,0.02
2013-11-8,42.5,36.4,31.7,32.0,29.6,27.0,93,77,56,30.25,30.09,11,4,0,0.00
2013-11-9,53.6,46.6,37.0,43.0,36.8,30.0,79,69,61,30.15,29.76,28,10,0,0.00
2013-11-10,47.8,42.5,36.5,38.0,32.3,30.0,82,67,56,30.23,29.86,12,4,0,0.00
2013-11-11,43.1,35.8,27.1,38.0,31.4,22.0,94,84,71,30.29,30.00,12,4,0,0.18
2013-11-12,33.0,27.1,21.9,23.0,19.6,17.0,89,74,58,30.53,30.30,6,2,0,0.02
2013-11-13,39.1,30.4,21.8,25.0,19.5,13.0,90,67,36,30.53,30.14,22,9,0,0.00
2013-11-14,50.8,41.0,32.9,30.0,23.7,19.0,63,51,39,30.14,29.94,23,10,0,0.00
2013-11-15,50.6,43.4,37.3,32.0,28.4,25.0,67,56,41,30.02,29.94,15,6,0,0.00
2013-11-16,55.5,46.8,37.2,53.0,42.4,31.0,92,84,68,30.06,29.74,22,10,0,0.00
2013-11-17,61.7,56.5,45.3,60.0,53.8,41.0,96,91,75,29.75,29.16,35,15,0,0.60
2013-11-18,45.9,39.2,34.0,42.0,31.7,25.0,87,75,68,30.10,29.41,29,10,0,0.00
2013-11-19,40.2,34.1,29.6,26.0,23.8,22.0,82,67,51,30.38,30.11,5,2,0,0.00
2013-11-20,44.5,36.0,28.1,33.0,27.4,22.0,91,73,42,30.41,30.21,19,6,0,0.00
2013-11-21,47.3,43.7,40.3,43.0,38.3,30.0,97,82,66,30.26,30.14,13,6,0,0.14
2013-11-22,44.3,38.2,28.0,44.0,36.0,25.0,98,91,78,30.33,30.10,7,2,0,0.05
2013-11-23,28.0,23.7,15.4,25.0,17.1,6.0,91,77,47,30.51,30.25,12,4,0,0.00
2013-11-24,23.8,18.6,13.1,16.0,12.0,9.0,85,76,58,30.59,30.40,9,3,0,0.00
2013-11-25,31.8,25.7,20.2,27.0,16.7,10.0,91,70,50,30.39,30.07,19,9,0,0.00
2013-11-26,33.0,30.4,27.6,29.0,27.4,23.0,93,88,83,30.08,29.92,10,4,0,0.00
2013-11-27,27.4,22.4,17.9,24.0,15.4,11.0,92,75,55,30.18,29.91,10,3,0,0.01
2013-11-28,27.5,22.6,17.4,21.0,16.8,13.0,91,79,63,30.41,30.18,11,3,0,0.00
2013-11-29,33.4,25.0,18.5,24.0,19.4,16.0,93,80,56,30.65,30.41,10,2,0,0.00
2013-11-30,44.0,34.7,27.2,30.0,26.6,23.0,84,73,58,30.53,30.07,14,7,0,0.00
2013-12-1,41.1,35.7,32.3,34.0,31.1,28.0,94,83,71,30.07,29.97,5,1,0,0.00
2013-12-2,37.5,32.3,29.0,30.0,26.3,23.0,93,79,58,29.98,29.87,5,0,0,0.00
2013-12-3,37.8,33.6,27.9,36.0,30.8,22.0,95,89,77,29.89,29.80,13,5,0,0.01
2013-12-4,56.6,45.7,37.9,54.0,44.1,36.0,96,94,90,29.86,29.57,13,6,0,0.02
2013-12-5,57.8,41.2,29.5,55.0,35.0,23.0,91,78,67,30.10,29.55,27,9,27,0.01
2013-12-6,29.5,24.6,19.3,23.0,17.6,12.0,78,74,70,30.38,30.09,5,2,0,0.00
2013-12-7,24.0,18.9,14.3,14.0,10.6,9.0,80,70,57,30.60,30.39,10,2,0,0.00
2013-12-8,28.2,18.8,11.4,27.0,14.1,8.0,93,82,68,30.58,29.97,9,3,0,0.00
2013-12-9,28.7,25.7,19.4,27.0,22.3,12.0,95,87,74,30.06,29.86,22,12,0,0.00
2013-12-10,21.3,17.3,10.9,18.0,11.0,2.0,89,77,49,30.17,29.94,24,10,0,0.00
2013-12-11,21.6,16.9,7.4,17.0,11.6,3.0,89,80,68,30.44,30.17,13,6,0,0.00
2013-12-12,20.2,13.0,4.2,15.0,7.0,0.0,89,77,49,30.44,30.18,22,9,0,0.00
2013-12-13,26.7,23.3,20.3,20.0,18.4,15.0,86,81,75,30.27,30.14,15,5,0,0.00
2013-12-14,21.2,18.8,16.8,19.0,16.1,12.0,92,89,75,30.26,29.82,11,4,0,0.00
2013-12-15,23.5,18.5,14.7,22.0,15.7,11.0,94,89,78,30.02,29.80,14,4,0,0.00
2013-12-16,22.6,14.2,5.8,13.0,9.2,3.0,90,81,64,30.18,30.01,7,2,0,0.07
2013-12-17,26.9,21.7,13.5,24.0,19.3,11.0,94,90,82,30.01,29.87,15,6,0,0.00
2013-12-18,28.3,25.8,21.7,25.0,21.2,15.0,94,83,65,30.09,29.86,15,7,0,0.00
2013-12-19,39.5,33.3,26.1,34.0,28.2,18.0,93,82,66,29.97,29.84,10,2,0,0.07
2013-12-20,38.0,34.3,33.0,37.0,33.6,32.0,98,97,94,29.87,29.70,6,1,0,0.31
2013-12-21,33.2,32.4,32.0,33.0,32.1,32.0,98,98,97,29.84,29.65,6,1,0,0.33
2013-12-22,35.3,32.7,29.2,34.0,31.9,28.0,98,96,92,29.93,29.53,14,2,0,0.37
2013-12-23,29.3,26.0,18.7,28.0,22.9,12.0,96,88,75,30.29,29.94,18,6,0,0.01
2013-12-24,18.3,13.5,8.5,14.0,9.0,6.0,90,82,69,30.53,30.27,16,4,0,0.00
2013-12-25,23.4,18.7,10.9,22.0,15.6,7.0,93,87,82,30.50,30.09,23,9,0,0.00
2013-12-26,26.0,24.4,22.3,25.0,21.2,18.0,100,88,78,30.26,30.02,12,6,0,0.00
2013-12-27,39.0,32.5,25.7,32.0,28.6,23.0,95,85,73,30.29,30.03,18,4,0,0.04
2013-12-28,49.0,40.8,33.8,36.0,33.0,30.0,85,74,58,30.08,29.86,16,8,0,0.00
2013-12-29,40.4,33.3,19.0,33.0,27.2,14.0,93,78,70,29.98,29.66,11,4,0,0.00
2013-12-30,18.9,17.2,14.5,14.0,9.1,5.0,82,70,65,30.25,29.99,10,3,0,0.00
2013-12-31,18.1,15.2,13.1,13.0,10.7,6.0,89,82,72,30.32,30.05,16,7,0,0.00
2014-1-1,14.9,11.8,9.8,12.0,8.2,5.0,90,85,77,30.39,30.24,6,2,0,0.00
2014-1-2,14.0,10.4,1.5,11.0,6.9,-3.0,90,85,78,30.29,30.10,10,4,0,0.00